CZ-6A DEB, 54329

Orbit data source: Space-Track

CZ-6A DEB, 54329 is space debris in SSO originally from a launch on Fri, 11 Nov 2022 UTC launched from the Taiyaun Space Center, China (TSC). Debris objects in space refer to the collection of defunct objects orbiting the Earth. Examples of debris include non-operational satellites, rocket bodies, and fragments generated from explosions, collisions, or faulty payload assembly.

Loading next visibility...
Identifier
54329, 2022-151BY
Orbit
SSO
Country
Flag of CNCN / PRC
Related business
Manufacturer
SAST
Mission
Spacecraft
Bus & Motor
Unknown
Mass
Unknown
Launch date (UTC)
2022-11-11 (4 years ago)
Launch vehicle
Unknown
Launch site
Taiyaun Space Center, China (TSC)
Object type
Payload
Rocket body
Debris
Shape & HBR
Unknown shape, 0.1 m
Radar Cross Section
Medium (>0.1 m² and <1 m²)

Expand to show TLE details & history
Last TLE update: 1 day ago

TLE from 1 day ago
0 CZ-6A DEB
1 54329U 22151BY  26208.27669563  .00009216  00000-0  93298-3 0  9998
2 54329  98.6349 311.9182 0085293 337.0571  22.6842 14.88511174197687
Epoch: 2026-07-27T06:38Z
TLE epoch observation values (Epoch: 2026-07-27T06:38:26.502Z)
Latitude
-0.00005°
Longitude
-92.65481°
Altitude
550.727 km
Speed
7.616 km/s
True Right ascension
20h 47m 40s
True Declination
0° 00' 00"
Sunlit
Object was in full shadow at epoch
Visualization orbit readout
Latitude
Unknown
Longitude
Unknown
Altitude
Unknown
Speed
Unknown
Apparent Right ascension
Unknown
Apparent Declination
Unknown
Sunlit
N/A
Visualization observer readout
Local Sidereal Time
06:26:43
Azimuth
Unknown
Elevation
Unknown
Doppler factor
Unknown
Orbital elements
Apogee altitude
659.166 km
Perigee altitude
540.135 km
Semi-major axis
6,977.787 km
Eccentricity
0.00853
Inclination
98.6349°
RAAN
311.9182°
Arg. of periapsis
337.0571°
True anomaly
23.06487°
Mean anomaly
22.6842°
Eccentric anomaly
22.87416°
Mean motion
3.72363 °/min
Orbital period
96.68 mins
BSTAR
0.00093298
Loading maneuver chart data...
Computing Atmospheric mass density...
Loading historical data...
Loading historical data...
Loading historical data...
Loading historical data...
Loading historical data...
Loading historical data...
Loading historical data...

Documentation

Showing up to 5 results
|